Wind_Speed
5 8 10 13 14 13 12 11 11 9 8 6 4 4 3 3 4 5 5 6 7 8 8 9 9 10 11 12 13 14 15 16 17 18 19 19 20 21 22 22 23 23 24
5 8 10 11 12 12 11 10 10 8 7 5 4 3 3 3 3 4 4 5 6 6 7 7 8 10 11 12 14 15 16 17 17 18 19 20 21 21 22 23 24 24 25
7 8 9 10 11 11 10 9 8 7 6 5 4 3 2 2 2 2 3 4 5 6 6 7 8 10 12 13 14 15 16 17 18 19 20 21 21 22 22 23 24 25 25
6 7 8 10 10 9 9 8 7 6 6 5 4 3 2 1 0 1 2 4 5 6 7 8 10 11 13 14 15 16 17 18 19 20 20 21 22 23 23 24 24 25 26
5 6 8 10 10 9 8 7 6 5 5 5 4 3 2 1 0 1 2 4 5 7 8 9 11 13 14 15 16 17 18 19 19 20 21 22 23 23 24 25 25 26 27
4 5 7 9 8 8 8 7 6 6 5 4 3 2 1 0 0 1 3 4 6 8 9 11 12 14 16 17 18 18 19 20 21 21 21 22 23 24 25 26 27 28 28
4 5 7 8 8 8 7 7 6 6 5 4 3 2 1 0 1 2 4 5 7 9 10 12 14 15 17 18 19 19 20 21 22 22 23 23 24 24 25 27 28 29 30
4 5 6 7 7 7 7 6 6 5 5 4 3 2 1 1 2 3 5 6 8 9 11 13 15 17 18 19 20 21 21 22 23 24 25 25 25 26 26 27 28 29 31
5 6 6 7 7 7 7 6 6 6 5 4 3 2 2 2 3 4 6 7 9 10 12 14 16 17 19 20 21 22 23 24 25 26 26 27 27 28 28 28 29 29 30
6 7 7 7 7 7 7 6 6 5 4 4 3 3 3 4 4 6 7 9 11 13 15 17 18 19 20 21 23 24 25 26 27 28 28 28 29 29 29 30 30 30 30
7 7 8 8 7 7 7 7 6 6 5 5 5 5 5 6 7 8 10 12 14 15 17 19 20 21 22 23 24 26 27 29 29 30 30 30 30 30 30 31 31 31 30
9 9 9 9 8 8 7 7 7 7 7 7 7 7 7 8 9 11 13 14 16 17 19 20 22 23 24 25 27 28 30 31 31 31 32 32 32 32 32 32 32 32 32
11 11 11 11 10 10 9 9 9 9 9 9 9 9 10 11 12 13 15 17 18 19 21 22 24 25 27 28 29 30 31 32 33 33 33 33 33 33 33 33 32 32 32
12 13 13 13 12 12 12 11 11 11 11 12 12 12 13 14 15 16 17 19 20 22 23 24 26 27 29 30 31 32 33 34 34 35 35 34 34 34 34 34 33 33 33
15 14 14 14 14 14 13 13 13 13 13 14 14 14 15 16 17 18 19 21 23 24 25 27 28 29 30 31 32 33 34 35 36 36 36 36 35 35 35 35 34 34 34
16 16 15 14 15 15 15 14 15 15 16 16 16 17 18 19 20 21 22 23 25 26 28 29 30 31 32 33 34 34 35 36 37 37 37 37 36 36 36 36 35 34 34
16 16 16 16 16 16 17 17 17 18 18 19 20 20 21 22 22 23 25 26 27 29 30 31 32 33 33 34 35 36 37 37 38 38 38 38 37 37 36 36 35 35 34
18 18 18 18 18 18 18 19 19 20 20 21 22 23 24 25 25 26 28 29 30 31 31 32 34 34 35 35 36 38 38 38 39 39 39 38 38 37 36 35 35 35 35
20 20 20 20 20 20 21 21 21 21 22 23 24 25 26 27 28 29 30 31 32 33 33 35 36 36 36 37 38 39 39 39 40 41 40 39 38 37 37 36 35 35 35
22 22 22 22 22 22 22 22 23 23 24 25 25 27 28 29 30 31 32 33 34 35 36 37 37 38 38 39 39 40 40 41 41 41 41 40 38 38 37 36 36 35 35
22 22 23 23 24 24 24 24 24 25 26 27 28 29 30 31 32 33 34 35 36 37 37 38 39 39 40 40 41 41 41 42 42 42 41 40 40 39 38 38 37 36 35
24 24 24 24 25 25 24 25 26 27 28 29 30 31 32 33 34 35 36 37 38 38 39 40 40 41 42 42 43 43 43 43 43 42 42 41 41 40 39 38 37 36 36
25 25 26 26 26 25 26 27 28 28 29 30 31 33 34 35 36 38 38 39 40 40 41 42 42 43 44 44 44 44 44 44 44 43 43 42 42 41 40 39 38 37 36
25 27 27 26 27 27 27 29 30 30 31 33 34 35 36 37 39 40 41 42 42 43 44 43 44 45 45 46 46 46 46 46 45 44 44 43 42 41 40 39 38 37 36
26 27 28 27 28 28 29 30 31 33 34 35 36 38 39 40 41 42 43 44 44 45 45 45 46 47 47 47 48 48 47 47 46 46 45 44 43 41 40 39 38 37 37
27 27 28 29 30 31 32 32 34 35 35 37 39 40 41 43 44 45 45 45 46 46 47 48 49 49 49 49 49 49 49 48 48 47 46 44 43 42 40 39 38 38 37
Wind_Direction
170 172 176 180 183 181 182 191 194 194 198 206 217 231 251 265 282 296 303 303 306 308 308 311 314 312 311 309 304 300 298 295 293 289 285 282 279 277 274 272 269 266 263
142 160 166 176 177 178 182 185 189 195 199 201 207 217 244 267 287 300 304 308 313 316 316 320 321 319 317 314 312 308 304 300 297 293 290 286 282 279 277 273 270 267 265
130 133 149 157 168 174 178 185 187 186 192 194 196 209 225 257 298 318 331 335 339 336 335 337 333 328 325 320 315 313 309 304 301 297 293 290 287 283 279 275 272 269 266
137 139 149 156 163 169 174 175 174 179 183 183 189 200 207 222 280 339 347 348 353 347 343 339 336 333 329 325 321 317 314 310 305 301 296 292 289 286 282 279 275 271 268
140 150 157 162 165 164 165 165 166 167 170 170 173 176 183 191 285 353 358 353 349 347 344 341 340 338 335 331 327 324 320 316 311 306 301 296 291 287 284 281 277 274 270
136 151 164 167 163 160 159 160 165 167 168 167 168 175 174 171 349 357 356 349 345 344 342 340 338 336 334 330 326 323 321 319 315 310 306 301 295 291 286 282 278 275 271
163 159 162 167 165 162 163 166 169 171 171 171 171 174 171 328 340 341 340 340 339 340 339 339 337 336 334 332 329 326 323 321 318 314 310 305 300 295 291 286 281 277 274
180 173 170 172 172 173 173 174 175 176 177 179 179 192 228 291 320 329 333 334 334 335 335 336 336 335 334 332 331 329 326 323 320 317 313 309 304 300 294 290 285 280 276
202 195 190 186 182 182 182 181 183 184 187 193 204 229 256 283 304 317 324 327 326 326 326 328 330 331 331 330 330 329 327 324 323 320 316 312 308 304 299 294 289 284 279
217 208 202 194 190 191 191 192 195 199 205 215 231 246 260 279 293 305 313 317 318 320 321 322 323 325 327 327 327 327 326 324 323 321 318 315 311 307 303 298 293 288 283
224 218 214 210 208 206 205 208 212 216 224 232 243 254 268 283 292 299 306 309 313 317 318 320 321 322 323 323 323 324 324 324 322 321 319 317 314 309 305 301 296 291 286
234 230 226 223 223 222 223 227 230 232 236 244 253 263 274 283 291 298 303 306 310 313 316 318 319 320 321 321 322 322 322 322 322 321 319 317 314 311 307 303 299 294 289
240 237 235 233 233 235 237 240 242 244 247 254 262 271 279 285 291 296 299 303 307 310 313 315 316 318 318 319 320 321 321 322 321 320 319 317 315 312 309 306 301 297 292
245 241 239 239 240 241 242 244 247 251 254 259 266 273 280 286 290 293 297 300 304 308 310 312 314 315 316 317 318 319 320 320 320 319 318 317 315 312 310 307 303 299 295
247 242 242 243 243 244 246 250 253 257 260 263 268 274 280 286 290 293 296 300 304 306 308 310 311 313 314 314 316 317 318 319 319 319 318 317 315 313 310 307 304 300 296
246 244 245 247 247 248 252 256 259 262 265 267 271 277 281 286 290 293 296 298 301 304 306 308 309 310 311 312 313 315 316 317 318 318 317 316 314 313 310 307 304 300 296
246 246 248 249 250 252 257 260 264 266 269 272 275 280 283 286 290 293 295 297 299 302 305 307 308 309 310 311 312 313 315 316 317 317 317 315 314 312 310 307 303 300 296
248 248 252 253 255 256 260 264 267 269 272 275 278 281 284 287 290 293 295 297 299 301 304 305 307 308 309 310 311 312 313 314 314 316 316 314 313 312 310 307 304 300 297
255 255 255 257 259 262 264 266 269 271 274 277 280 282 285 288 290 292 294 296 298 300 302 303 305 307 308 309 310 311 312 313 313 314 314 313 311 311 309 307 304 300 297
258 258 258 259 260 261 265 268 270 273 276 279 281 283 286 289 291 293 294 296 297 299 301 302 304 305 306 307 308 310 310 311 312 312 313 312 311 309 308 306 303 301 298
260 261 260 261 261 262 267 270 272 275 278 281 283 284 287 289 291 293 294 296 297 298 300 301 302 304 306 306 307 308 309 310 310 311 311 311 310 308 307 305 303 300 298
261 263 265 265 266 268 270 273 274 277 279 282 284 285 287 289 291 293 294 296 297 299 299 300 301 303 305 305 306 307 308 309 309 309 309 309 308 307 306 304 303 300 298
265 266 267 268 270 272 274 275 278 280 282 283 284 286 287 289 290 292 294 296 297 298 298 299 301 303 304 304 305 306 307 308 308 308 307 307 307 306 304 303 301 299 297
267 266 265 267 270 272 274 277 279 281 282 282 284 286 287 289 290 292 293 295 296 297 298 298 300 301 302 303 304 305 306 306 307 306 306 305 305 304 303 301 300 298 296
265 265 265 267 270 273 275 277 279 280 282 283 284 285 287 288 289 290 292 293 295 296 297 298 299 300 301 302 302 303 304 304 305 305 305 304 303 302 302 301 299 297 296
265 265 267 269 271 273 275 277 279 280 282 283 285 285 286 288 290 291 292 293 294 296 297 297 298 299 300 300 301 301 302 302 303 303 303 302 300 300 300 299 298 296 296
Height
5839 5840 5842 5844 5847 5849 5852 5855 5858 5860 5861 5862 5863 5864 5865 5866 5866 5866 5866 5867 5867 5866 5866 5865 5865 5864 5864 5863 5863 5862 5861 5860 5860 5859 5859 5859 5858 5858 5858 5858 5859 5859 5860
5840 5841 5843 5845 5846 5848 5852 5855 5857 5858 5859 5861 5862 5864 5864 5865 5865 5865 5865 5865 5865 5865 5864 5864 5863 5862 5862 5861 5860 5859 5858 5857 5856 5855 5854 5854 5854 5853 5853 5853 5853 5853 5854
5841 5843 5844 5845 5847 5849 5852 5854 5856 5857 5859 5860 5862 5863 5864 5864 5864 5864 5864 5864 5863 5863 5862 5862 5861 5861 5860 5858 5857 5856 5854 5853 5852 5851 5850 5849 5848 5847 5847 5847 5847 5847 5847
5842 5844 5845 5846 5848 5850 5852 5854 5856 5857 5858 5860 5861 5862 5863 5863 5863 5864 5863 5863 5863 5862 5861 5860 5860 5859 5857 5856 5854 5853 5851 5849 5848 5846 5845 5844 5843 5842 5841 5841 5840 5840 5840
5843 5844 5846 5847 5849 5850 5852 5854 5855 5857 5858 5859 5860 5861 5862 5862 5862 5862 5862 5862 5861 5861 5860 5859 5858 5856 5855 5853 5851 5849 5847 5845 5843 5842 5840 5839 5837 5836 5835 5834 5834 5833 5833
5845 5845 5847 5848 5849 5851 5852 5854 5855 5857 5858 5859 5860 5860 5861 5861 5861 5861 5861 5861 5860 5859 5858 5857 5856 5854 5852 5850 5848 5846 5844 5841 5839 5837 5835 5833 5832 5830 5829 5827 5826 5826 5826
5846 5847 5848 5849 5850 5851 5852 5854 5855 5856 5857 5858 5859 5859 5860 5860 5860 5860 5859 5859 5858 5857 5856 5855 5853 5851 5849 5847 5845 5842 5840 5837 5835 5832 5830 5827 5825 5824 5822 5821 5819 5818 5818
5847 5848 5848 5849 5850 5851 5852 5854 5855 5856 5856 5857 5857 5858 5858 5859 5859 5858 5858 5857 5856 5855 5854 5852 5850 5848 5846 5844 5841 5838 5836 5833 5830 5827 5824 5821 5819 5817 5815 5813 5812 5810 5809
5847 5848 5849 5849 5850 5851 5852 5853 5854 5855 5855 5856 5856 5856 5857 5857 5857 5856 5856 5855 5854 5853 5851 5850 5847 5845 5843 5840 5837 5834 5831 5828 5825 5821 5818 5815 5812 5809 5807 5805 5803 5802 5801
5847 5847 5848 5849 5850 5850 5851 5852 5853 5853 5854 5854 5854 5855 5855 5855 5855 5854 5853 5852 5851 5850 5848 5846 5844 5841 5838 5836 5833 5830 5826 5823 5819 5815 5812 5808 5805 5802 5799 5796 5794 5792 5791
5846 5847 5847 5848 5849 5849 5850 5850 5851 5851 5851 5852 5852 5853 5853 5852 5852 5851 5850 5849 5848 5846 5844 5842 5839 5836 5834 5831 5827 5824 5820 5817 5813 5809 5805 5801 5797 5794 5790 5788 5785 5783 5782
5845 5845 5845 5846 5847 5847 5847 5848 5848 5849 5849 5850 5850 5850 5849 5849 5848 5847 5846 5845 5844 5842 5839 5837 5834 5831 5828 5825 5822 5818 5814 5810 5806 5802 5798 5794 5790 5786 5782 5779 5776 5773 5772
5843 5843 5843 5844 5844 5844 5845 5845 5846 5846 5846 5847 5846 5846 5846 5845 5844 5843 5842 5840 5839 5837 5834 5832 5829 5826 5823 5819 5816 5812 5808 5803 5799 5795 5790 5786 5782 5777 5774 5770 5767 5764 5762
5840 5841 5841 5841 5842 5842 5842 5843 5843 5843 5843 5843 5842 5842 5841 5840 5839 5838 5837 5835 5833 5831 5829 5826 5823 5820 5817 5813 5809 5805 5801 5796 5792 5787 5782 5778 5773 5769 5765 5761 5757 5754 5752
5837 5838 5838 5838 5839 5839 5839 5839 5839 5839 5839 5838 5838 5837 5836 5835 5834 5833 5831 5830 5827 5825 5822 5820 5817 5814 5810 5806 5802 5798 5794 5789 5784 5779 5774 5770 5765 5760 5756 5752 5748 5745 5742
5834 5834 5835 5835 5835 5835 5835 5835 5835 5834 5834 5833 5833 5832 5831 5830 5829 5827 5825 5823 5821 5819 5816 5813 5810 5807 5803 5799 5795 5791 5786 5781 5776 5771 5766 5761 5756 5752 5747 5743 5739 5736 5732
5829 5830 5830 5830 5830 5830 5830 5830 5829 5829 5828 5828 5827 5826 5825 5823 5822 5820 5819 5816 5814 5811 5809 5806 5802 5799 5795 5791 5787 5783 5778 5773 5768 5763 5757 5752 5747 5742 5738 5733 5730 5726 5723
5825 5825 5825 5825 5825 5825 5824 5824 5823 5823 5822 5822 5821 5819 5818 5817 5815 5813 5811 5809 5806 5804 5801 5797 5794 5790 5787 5783 5778 5774 5769 5764 5759 5754 5749 5743 5738 5733 5729 5724 5720 5716 5713
5820 5820 5819 5819 5819 5818 5818 5817 5817 5816 5816 5815 5814 5812 5811 5809 5807 5805 5803 5801 5798 5795 5792 5789 5785 5781 5778 5774 5769 5765 5760 5755 5750 5745 5739 5734 5729 5724 5719 5715 5711 5707 5703
5813 5813 5812 5812 5812 5811 5811 5811 5810 5809 5808 5807 5806 5804 5803 5801 5799 5797 5794 5792 5789 5786 5783 5780 5776 5772 5768 5764 5760 5755 5750 5745 5740 5735 5729 5724 5719 5714 5709 5705 5701 5697 5693
5806 5806 5805 5805 5805 5804 5804 5803 5802 5801 5800 5799 5798 5796 5794 5792 5790 5788 5786 5783 5780 5777 5774 5770 5766 5762 5759 5754 5750 5745 5740 5735 5730 5724 5719 5714 5709 5704 5699 5695 5691 5687 5683
5799 5799 5798 5798 5797 5797 5796 5795 5794 5793 5792 5791 5789 5787 5786 5784 5781 5779 5776 5773 5770 5767 5763 5760 5756 5752 5748 5744 5739 5734 5729 5724 5719 5714 5709 5703 5698 5694 5689 5684 5680 5676 5673
5791 5791 5791 5791 5790 5789 5788 5788 5786 5785 5784 5782 5780 5778 5776 5774 5772 5769 5766 5763 5760 5756 5753 5749 5746 5742 5737 5732 5727 5722 5718 5712 5708 5703 5698 5693 5688 5683 5678 5674 5669 5666 5662
5784 5783 5783 5783 5782 5781 5780 5779 5778 5777 5775 5773 5771 5769 5767 5764 5762 5759 5756 5752 5749 5745 5742 5738 5734 5730 5726 5721 5715 5711 5706 5701 5696 5691 5686 5681 5676 5672 5667 5663 5658 5655 5651
5776 5776 5775 5774 5774 5773 5772 5771 5769 5768 5766 5764 5761 5759 5757 5754 5751 5748 5744 5741 5737 5733 5730 5726 5722 5718 5714 5709 5703 5698 5694 5689 5684 5679 5675 5670 5665 5660 5656 5652 5647 5644 5640
5768 5767 5767 5766 5765 5763 5762 5761 5759 5758 5756 5754 5751 5748 5745 5742 5739 5736 5733 5729 5726 5721 5717 5713 5709 5705 5701 5696 5691 5686 5681 5676 5671 5667 5662 5658 5653 5648 5644 5640 5636 5633 5629